If you wish to contribute or participate in the discussions about articles you are invited to join SKYbrary as a registered user

 Actions

Toyama Airport

From SKYbrary Wiki

RJNT
Airport
ICAO: RJNT – IATA: TOY
Summary
Name Toyama Airport
Region Asia and Pacific
Territory Japan JP.gif
Location Toyama, Toyama Prefecture
Serving Toyama
Elevation 38.71 m
127 ft38.71 m
Coordinates 36° 38' 37.66" N, 137° 11' 22.23" E
Runways
Designator Length Width Surface ROPS
2/20 2000 m6,561.68 ft
46 m150.919 ft
ASP yes/yes


METAR
Observation RJNT 262300Z 21004KT 9999 FEW030 SCT180 OVC190 04/00 Q1024
Station Toyama Airport
Date/Time 26 January 2020 23:00:00
Wind direction 210°
Wind speed 04 kts
Lowest cloud amount few clouds
Temperature 4°C
Dew point 0°C
Humidity 75%
QNH 1024 hPa
Weather condition n/a

Toyama Airport is an airport located 3 nm5,556 m
5.556 km
18,228.346 ft
south southwest of Toyama City, Toyama Prefecture, Japan.

Climatology

Humid Sub-tropical climate (Köppen climate classification Cfa)

Maps

Terrain

Loading map...

Airport Layout

Loading map...


Accidents & Serious Incidents at or in vicinity of RJNT

None on SKYbrary